Weather History for Curacao, Curacao

Change the Weather History Date:

Thursday, November 8, 2012

  Actual Average Record
Temperature  
Mean Temperature 82 °F -  
Max Temperature 86 °F 85 °F 91 °F (2007)
Min Temperature 77 °F 76 °F 75 °F (2008)
Cooling Degree Days 16    
Growing Degree Days 32 (Base 50)    
Moisture  
Dew Point 73 °F    
Average Humidity 76    
Maximum Humidity 94    
Minimum Humidity 58    
Precipitation  
Precipitation 0.00 in 0.13 in - ()
Sea Level Pressure  
Sea Level Pressure 29.85 in    
Wind  
Wind Speed 8 mph ()    
Max Wind Speed 12 mph    
Max Gust Speed -    
Visibility 6.2 miles    
Events      
Averages and records for this station are not official NWS values.
T = Trace of Precipitation, MM = Missing Value Source: Averaged Metar Reports

Daily Weather History Graph

Daily Weather History Graph

Search for Another Location

Airport:

Trip Planner

Search our weather history database for the weather conditions in past years. The results will help you decide how hot, cold, wet, or windy it might be!

Date:

Astronomy

Nov. 08, 2012 Rise Set
Actual Time 6:30 AM AST 6:08 PM AST
Civil Twilight 6:08 AM AST 6:30 PM AST
Nautical Twilight 5:43 AM AST 6:55 PM AST
Astronomical Twilight 5:18 AM AST 7:21 PM AST
Moon 1:22 AM AST (11/8) 1:54 PM AST (11/8)
Length of Visible Light 12h 21m
Length of Day
11h 37m
Waning Crescent, 33% of the Moon is Illuminated
Nov 8
Waning Crescent
Nov 13
New
Nov 20
First Quarter
Nov 28
Full
Dec 6
Last Quarter

Hourly Weather History & Observations

Time (AST) Temp. Heat Index Dew Point Humidity Pressure Visibility Wind Dir Wind Speed Gust Speed Precip Events Conditions
12:00 AM 77.0 °F - 75.2 °F 94% 29.86 in 6.2 mi ESE 4.6 mph - N/A   Partly Cloudy
1:00 AM 77.0 °F - 75.2 °F 94% 29.86 in - ESE 5.8 mph - N/A   Partly Cloudy
2:00 AM 80 °F - 75 °F 81% 29.85 in 25 mi ESE 9.2 mph - -   Partly Cloudy
2:00 AM 78.8 °F - 75.2 °F 89% 29.83 in 6.2 mi East 10.4 mph - N/A   Scattered Clouds
3:00 AM 80.6 °F 86.2 °F 75.2 °F 84% 29.83 in 6.2 mi East 10.4 mph - N/A   Scattered Clouds
4:00 AM 78.8 °F - 75.2 °F 89% 29.83 in 6.2 mi East 10.4 mph - N/A   Scattered Clouds
5:00 AM 78 °F - 73 °F 81% 29.85 in 31 mi ESE 9.2 mph - -   Scattered Clouds
5:00 AM 78.8 °F - 73.4 °F 83% 29.83 in 6.2 mi ESE 9.2 mph - N/A   Partly Cloudy
6:00 AM 77.0 °F - 73.4 °F 89% 29.86 in 6.2 mi ESE 8.1 mph - N/A   Partly Cloudy
7:00 AM 78.8 °F - 73.4 °F 83% 29.89 in 6.2 mi ESE 8.1 mph - N/A   Partly Cloudy
8:00 AM 82.4 °F 89.5 °F 75.2 °F 79% 29.89 in 6.2 mi East 9.2 mph - N/A   Partly Cloudy
9:00 AM 84.2 °F 92.3 °F 75.2 °F 74% 29.92 in 6.2 mi East 9.2 mph - N/A   Partly Cloudy
10:00 AM 84.2 °F 90.9 °F 73.4 °F 70% 29.92 in 6.2 mi East 11.5 mph - N/A   Partly Cloudy
11:00 AM 85 °F - 74 °F 62% 29.92 in 31 mi East 11.5 mph - -   Scattered Clouds
11:00 AM 84.2 °F 90.9 °F 73.4 °F 70% 29.92 in 6.2 mi East 9.2 mph - N/A   Partly Cloudy
12:00 PM 86.0 °F 93.4 °F 73.4 °F 66% 29.89 in 6.2 mi East 9.2 mph - N/A   Partly Cloudy
1:00 PM 86.0 °F 91.8 °F 71.6 °F 62% 29.86 in 6.2 mi ENE 10.4 mph - N/A   Partly Cloudy
2:00 PM 85 °F - 72 °F 58% 29.84 in 37 mi East 9.2 mph - -   Scattered Clouds
3:00 PM 84.2 °F 89.6 °F 71.6 °F 66% 29.80 in 6.2 mi East 8.1 mph - N/A   Partly Cloudy
4:00 PM 84.2 °F 90.9 °F 73.4 °F 70% 29.80 in 6.2 mi ENE 8.1 mph - N/A   Scattered Clouds
5:00 PM 82 °F - 73 °F 67% 29.79 in 37 mi ESE 9.2 mph - -   Partly Cloudy
5:00 PM 82.4 °F 88.2 °F 73.4 °F 74% 29.80 in 6.2 mi East 9.2 mph - N/A   Scattered Clouds
6:00 PM 80.6 °F 84.6 °F 71.6 °F 74% 29.80 in 6.2 mi East 8.1 mph - N/A   Scattered Clouds
7:00 PM 78.8 °F - 71.6 °F 78% 29.80 in 6.2 mi ESE 5.8 mph - N/A   Scattered Clouds
8:00 PM 80 °F - 72 °F 70% 29.86 in 37 mi East 11.5 mph - -   Partly Cloudy
8:00 PM 80.6 °F 84.6 °F 71.6 °F 74% 29.86 in 6.2 mi East 11.5 mph - N/A   Scattered Clouds
9:00 PM 78.8 °F - 71.6 °F 78% 29.86 in 6.2 mi East 10.4 mph - N/A   Scattered Clouds
10:00 PM 77.0 °F - 69.8 °F 78% 29.86 in 6.2 mi ESE 8.1 mph - N/A   Partly Cloudy
11:00 PM 78.8 °F - 71.6 °F 78% 29.86 in 6.2 mi ESE 6.9 mph - N/A   Partly Cloudy